Hourly Weather Krivcovo

Today, 3 August, Monday

Time Temperature Precipitation Wind Pressure Humidity
00:00 +10°C° 0 mm 2 mps 742 mmHg 89%
01:00 +11°C° 0 mm 1 mps 742 mmHg 89%
02:00 +11°C° 0 mm 1 mps 743 mmHg 91%
03:00 +11°C° 0 mm 1 mps 743 mmHg 90%
04:00 +11°C° 0 mm 1 mps 743 mmHg 90%
05:00 +11°C° 0 mm 1 mps 743 mmHg 90%
06:00 +13°C° 0 mm 1 mps 744 mmHg 85%
07:00 +15°C° 0 mm 1 mps 744 mmHg 79%
08:00 +18°C° 0 mm 1 mps 744 mmHg 75%
09:00 +19°C° 0 mm 1 mps 744 mmHg 69%
10:00 +19°C° 0 mm 2 mps 744 mmHg 64%
11:00 +20°C° 0 mm 2 mps 744 mmHg 59%
12:00 +20°C° 0 mm 2 mps 744 mmHg 57%
13:00 +21°C° 0 mm 2 mps 744 mmHg 56%
14:00 +21°C° 0 mm 2 mps 744 mmHg 54%
15:00 +21°C° 0 mm 2 mps 745 mmHg 59%
16:00 +21°C° 0 mm 2 mps 745 mmHg 63%
17:00 +21°C° 0 mm 2 mps 745 mmHg 67%
18:00 +19°C° 0 mm 2 mps 745 mmHg 71%
19:00 +18°C° 0 mm 1 mps 745 mmHg 75%
20:00 +16°C° 0 mm 1 mps 745 mmHg 78%
21:00 +15°C° 0 mm 1 mps 745 mmHg 80%
22:00 +15°C° 0 mm 2 mps 745 mmHg 81%
23:00 +14°C° 0 mm 2 mps 745 mmHg 82%

Tomorrow, 4 August, Tuesday

Time Temperature Precipitation Wind Pressure Humidity
00:00 +14°C° 0 mm 2 mps 746 mmHg 83%
01:00 +13°C° 0 mm 2 mps 746 mmHg 85%
02:00 +13°C° 0 mm 2 mps 746 mmHg 87%
03:00 +13°C° 0 mm 2 mps 746 mmHg 87%
04:00 +13°C° 0 mm 2 mps 746 mmHg 87%
05:00 +13°C° 0 mm 2 mps 746 mmHg 87%
06:00 +15°C° 0 mm 2 mps 746 mmHg 82%
07:00 +17°C° 0 mm 2 mps 747 mmHg 77%
08:00 +19°C° 0 mm 2 mps 747 mmHg 72%
09:00 +20°C° 0 mm 2 mps 747 mmHg 68%
10:00 +21°C° 0 mm 2 mps 747 mmHg 64%
11:00 +23°C° 0 mm 2 mps 747 mmHg 61%
12:00 +23°C° 0 mm 2 mps 747 mmHg 59%
13:00 +24°C° 0 mm 2 mps 747 mmHg 58%
14:00 +24°C° 0 mm 2 mps 747 mmHg 57%
15:00 +24°C° 0 mm 2 mps 747 mmHg 61%
16:00 +24°C° 0 mm 1 mps 746 mmHg 65%
17:00 +24°C° 0 mm 1 mps 746 mmHg 68%
18:00 +22°C° 0 mm 1 mps 746 mmHg 71%
19:00 +20°C° 0 mm 1 mps 747 mmHg 74%
20:00 +18°C° 0 mm 1 mps 747 mmHg 78%
21:00 +18°C° 0 mm 1 mps 747 mmHg 79%
22:00 +16°C° 0 mm 1 mps 747 mmHg 80%
23:00 +16°C° 0 mm 1 mps 747 mmHg 81%

Day after tomorrow, 5 August, Wednesday

Time Temperature Precipitation Wind Pressure Humidity
00:00 +15°C° 0 mm 1 mps 747 mmHg 82%
01:00 +15°C° 0 mm 1 mps 747 mmHg 83%
02:00 +15°C° 0 mm 1 mps 748 mmHg 84%
03:00 +15°C° 0 mm 1 mps 748 mmHg 84%
04:00 +15°C° 0 mm 1 mps 748 mmHg 84%
05:00 +15°C° 0 mm 1 mps 748 mmHg 84%
06:00 +18°C° 0 mm 1 mps 748 mmHg 78%
07:00 +20°C° 0 mm 1 mps 748 mmHg 73%
08:00 +22°C° 0 mm 1 mps 748 mmHg 68%
09:00 +23°C° 0 mm 1 mps 748 mmHg 64%
10:00 +24°C° 0 mm 2 mps 748 mmHg 60%
11:00 +25°C° 0 mm 2 mps 748 mmHg 56%
12:00 +25°C° 0 mm 1 mps 748 mmHg 55%
13:00 +26°C° 0 mm 1 mps 748 mmHg 53%
14:00 +26°C° 0 mm 1 mps 748 mmHg 52%
15:00 +26°C° 0 mm 1 mps 748 mmHg 55%
16:00 +26°C° 0 mm 1 mps 748 mmHg 58%
17:00 +24°C° 0 mm 0 mps 748 mmHg 62%
18:00 +22°C° 0 mm 0 mps 748 mmHg 66%
19:00 +20°C° 0 mm 0 mps 748 mmHg 70%
20:00 +18°C° 0 mm 0 mps 748 mmHg 74%
21:00 +17°C° 0 mm 0 mps 748 mmHg 76%
22:00 +17°C° 0 mm 0 mps 748 mmHg 77%
23:00 +16°C° 0 mm 0 mps 748 mmHg 79%

6 August, Thursday

Time Temperature Precipitation Wind Pressure Humidity
00:00 +16°C° 0 mm 0 mps 748 mmHg 80%
01:00 +16°C° 0 mm 0 mps 749 mmHg 81%
02:00 +15°C° 0 mm 0 mps 749 mmHg 82%
03:00 +15°C° 0 mm 0 mps 749 mmHg 82%
04:00 +16°C° 0 mm 0 mps 749 mmHg 82%
05:00 +16°C° 0 mm 0 mps 749 mmHg 82%
06:00 +20°C° 0 mm 1 mps 749 mmHg 77%
07:00 +21°C° 0 mm 1 mps 749 mmHg 73%
08:00 +23°C° 0 mm 1 mps 749 mmHg 69%
09:00 +24°C° 0 mm 1 mps 749 mmHg 65%
10:00 +25°C° 0 mm 1 mps 749 mmHg 61%
11:00 +26°C° 0 mm 1 mps 749 mmHg 57%
12:00 +27°C° 0 mm 1 mps 749 mmHg 55%
13:00 +27°C° 0 mm 1 mps 749 mmHg 54%
14:00 +28°C° 0 mm 1 mps 748 mmHg 52%
15:00 +27°C° 0 mm 1 mps 748 mmHg 56%
16:00 +27°C° 0 mm 1 mps 748 mmHg 61%
17:00 +27°C° 0 mm 1 mps 748 mmHg 65%
18:00 +25°C° 0 mm 1 mps 748 mmHg 71%
19:00 +23°C° 0 mm 2 mps 748 mmHg 78%
20:00 +20°C° 0 mm 2 mps 748 mmHg 84%
21:00 +19°C° 0 mm 2 mps 748 mmHg 86%
22:00 +19°C° 0 mm 2 mps 748 mmHg 89%
23:00 +19°C° 0 mm 2 mps 748 mmHg 91%

7 August, Friday

Time Temperature Precipitation Wind Pressure Humidity
00:00 +18°C° 0.1 mm 2 mps 748 mmHg 93%
01:00 +18°C° 0.1 mm 2 mps 748 mmHg 94%
02:00 +18°C° 0.1 mm 2 mps 748 mmHg 95%
03:00 +18°C° 0 mm 2 mps 749 mmHg 95%
04:00 +18°C° 0 mm 3 mps 749 mmHg 95%
05:00 +18°C° 0 mm 3 mps 749 mmHg 95%
06:00 +19°C° 0 mm 3 mps 749 mmHg 92%
07:00 +19°C° 0 mm 4 mps 749 mmHg 88%
08:00 +20°C° 0 mm 4 mps 749 mmHg 84%
09:00 +21°C° 0 mm 5 mps 749 mmHg 77%
10:00 +22°C° 0 mm 5 mps 749 mmHg 69%
11:00 +23°C° 0 mm 5 mps 749 mmHg 61%
12:00 +23°C° 0 mm 5 mps 749 mmHg 60%
13:00 +25°C° 0 mm 5 mps 749 mmHg 58%
14:00 +25°C° 0 mm 5 mps 749 mmHg 57%
15:00 +23°C° 0 mm 5 mps 749 mmHg 61%
16:00 +23°C° 0 mm 4 mps 749 mmHg 65%
17:00 +24°C° 0 mm 3 mps 749 mmHg 69%
18:00 +21°C° 0 mm 4 mps 749 mmHg 71%
19:00 +20°C° 0 mm 4 mps 749 mmHg 74%
20:00 +19°C° 0 mm 4 mps 749 mmHg 76%
21:00 +18°C° 0 mm 4 mps 749 mmHg 78%
22:00 +17°C° 0 mm 4 mps 749 mmHg 80%
23:00 +15°C° 0 mm 4 mps 749 mmHg 81%

8 August, Saturday

Time Temperature Precipitation Wind Pressure Humidity
00:00 +16°C° 0 mm 3 mps 749 mmHg 83%
01:00 +14°C° 0 mm 3 mps 749 mmHg 85%
02:00 +14°C° 0 mm 3 mps 749 mmHg 87%
03:00 +14°C° 0 mm 3 mps 749 mmHg 88%
04:00 +13°C° 0 mm 3 mps 749 mmHg 88%
05:00 +13°C° 0 mm 3 mps 749 mmHg 89%
06:00 +15°C° 0 mm 4 mps 749 mmHg 84%
07:00 +18°C° 0 mm 4 mps 749 mmHg 79%
08:00 +19°C° 0 mm 4 mps 749 mmHg 74%
09:00 +21°C° 0 mm 5 mps 749 mmHg 69%
10:00 +22°C° 0 mm 5 mps 749 mmHg 64%
11:00 +23°C° 0 mm 5 mps 749 mmHg 59%
12:00 +23°C° 0 mm 5 mps 748 mmHg 58%
13:00 +23°C° 0 mm 5 mps 748 mmHg 58%
14:00 +25°C° 0 mm 5 mps 748 mmHg 58%
15:00 +23°C° 0 mm 4 mps 747 mmHg 61%
16:00 +23°C° 0 mm 4 mps 747 mmHg 65%
17:00 +24°C° 0 mm 3 mps 747 mmHg 68%
18:00 +21°C° 0 mm 3 mps 747 mmHg 72%
19:00 +19°C° 0 mm 3 mps 747 mmHg 76%
20:00 +17°C° 0 mm 3 mps 747 mmHg 79%
21:00 +17°C° 0 mm 3 mps 747 mmHg 83%
22:00 +16°C° 0 mm 3 mps 747 mmHg 86%
23:00 +14°C° 0 mm 3 mps 747 mmHg 89%
Show more